Printer-friendly version
Follow the MPC on Twitter Follow the MPC on Facebook The MPC blog
Minor Planet Center

MPEC 2000-J33 : 2000 CQ101

The following Minor Planet Electronic Circular may be linked-to from your own Web pages, but must not otherwise be redistributed electronically.

A form allowing access to any MPEC is at the bottom of this page.


Read MPEC 2000-J32 Read MPEC 2000-J34


M.P.E.C. 2000-J33                                Issued 2000 May  9, 18:23 UT

     The Minor Planet Electronic Circulars contain information on unusual
         minor planets and routine data on comets.  They are published
   on behalf of Commission 20 of the International Astronomical Union by the
          Minor Planet Center, Smithsonian Astrophysical Observatory,
                          Cambridge, MA 02138, U.S.A.

             Prepared using the Tamkin Foundation Computer Network

             BMARSDEN@CFA.HARVARD.EDU or GWILLIAMS@CFA.HARVARD.EDU
          URL http://cfa-www.harvard.edu/iau/mpc.html  ISSN 1523-6714

                                  2000 CQ101

                           Revision to MPEC 2000-D06

Observations:
     K00CA1Q 1 1955 03 14.17569 07 48 32.51 +28 03 35.8                      675
     K00CA1Q 1 1955 03 14.21042 07 48 33.20 +28 03 22.3                      675
     K00CA1Q 1 1955 03 14.21806 07 48 33.34 +28 03 18.6                      675

Observer details:
675 Palomar Mountain.  Trail located and measured by A. Boattini, G. Forti,
    G. D'Abramo, L. Tesi, M. Tombelli.  1.2-m Schmidt.

First and last observations above in comparison with prediction:
Residuals in seconds of arc (or two decimals in degrees), reference and Delta-T
550314 675 0.37+ 0.03-    550314 675 0.37+ 0.03-    MPC 39601   -0.31 day

Orbital elements:
2000 CQ101
Epoch 2000 Feb. 26.0 TT = JDT 2451600.5                 Williams
M 336.59921              (2000.0)            P               Q
n   0.28474792     Peri.  173.87951     -0.91460009     +0.40352294
a   2.2882090      Node    29.96126     -0.37316553     -0.81753449
e   0.4939459      Incl.    2.98403     -0.15573749     -0.41086080
P   3.46           H   17.7           G   0.15           U   3
Residuals in seconds of arc
550314 675  0.4-  0.7+    000212 046  0.0   0.0     000215 658  0.1-  0.1+
550314 675  0.2+  0.2+    000212 046  0.2-  0.4+    000228 693  0.0   0.2+
550314 675  0.2+  0.6-    000212 858  0.1-  0.3-    000228 693  0.1+  0.2+
000104 704  0.2+  0.1+    000212 858  0.5-  0.3-    000228 693  0.0   0.2+
000104 704  0.3-  0.0     000212 858  0.3-  0.1-    000228 118  1.4-  0.2+
000104 704  0.3-  0.5+    000212 104  1.1+  0.1+    000228 118  0.6+  0.7-
000104 704  0.8+  0.2-    000212 104  1.1+  0.3+    000306 360  0.2+  0.1-
000211 704  0.8+  0.8-    000212 104  0.6-  0.3-    000306 360  0.1+  0.3-
000211 704  0.5-  0.5+    000212 104  1.7-  0.9-    000306 360  0.3+  0.1+
000211 704  0.6+  0.4+    000212 595  0.5-  0.6-    000422 540  0.0   0.0
000211 704  0.8-  0.5-    000213 595  0.1-  0.5-    000422 540 (3.2+  2.2-)
000212 046  0.3+  0.7+    000215 658  0.3+  0.4+    000422 540 (2.0-  0.6-)
000212 046  0.6+  0.2+    000215 658  0.2+  0.5+

Ephemeris:
2000 CQ101               a,e,i = 2.29, 0.49, 3                   q = 1.1580
Date    TT    R. A. (2000) Decl.     Delta      r     Elong.  Phase     V
2000 05 06    09 01.35   +18 39.9    0.647    1.166    86.6    59.7    19.2
2000 05 16    09 35.39   +15 09.4    0.644    1.158    85.8    60.5    19.2
2000 05 26    10 11.65   +11 01.5    0.646    1.161    85.9    60.5    19.2
2000 06 05    10 49.55   +06 22.5    0.654    1.175    86.7    59.5    19.3
2000 06 15    11 28.51   +01 24.4    0.673    1.199    88.0    57.9    19.3
2000 06 25    12 07.87   -03 36.2    0.705    1.232    89.5    55.6    19.4
2000 07 05    12 47.07   -08 22.3    0.751    1.273    90.8    53.0    19.5
2000 07 15    13 25.58   -12 40.3    0.813    1.320    91.7    50.3    19.7
2000 07 25    14 02.97   -16 21.6    0.890    1.373    91.9    47.7    19.9
2000 08 04    14 38.97   -19 23.6    0.982    1.430    91.4    45.2    20.2
2000 08 14    15 13.45   -21 47.5    1.087    1.489    90.3    42.8    20.4
2000 08 24    15 46.35   -23 36.6    1.204    1.551    88.5    40.7    20.7
2000 09 03    16 17.72   -24 55.1    1.331    1.615    86.1    38.6    20.9
2000 09 13    16 47.64   -25 47.3    1.468    1.679    83.2    36.5    21.1
2000 09 23    17 16.19   -26 16.8    1.612    1.744    79.9    34.5    21.4
2000 10 03    17 43.48   -26 26.8    1.763    1.808    76.2    32.5    21.6
2000 10 13    18 09.61   -26 19.9    1.918    1.872    72.2    30.5    21.8
2000 10 23    18 34.65   -25 58.3    2.076    1.936    67.9    28.4    22.0

Gareth V. Williams           (C) Copyright 2000 MPC           M.P.E.C. 2000-J33

Read MPEC 2000-J32 Read MPEC 2000-J34


MPEC number:

Enter an MPEC number in one of the following forms:

  • 1997-B01 (the full form)
  • J97B01 (the packed version of the full form)
  • B01 (the abbreviated form)

Valid HTML 4.01!